16.10.2021 RTP Rallispecial

Tulokset  Keskeyttäneet (16)  AT-pisteet (1)  Tilastot Lähtöön oikeutettujen lista CSV


 << EK1 Maali> Yleiskilpailun tulos
RTP Rallispecial
16.10.2021
EK 2, LUOKKATULOKSET
2WD
 
EK2
 
Luokka 2 , 2wd nuotti , Lähti:7
EK2, 5.5km, nopein: 80.8km/h
SijNroNimiTulosEro
163Jani Tenhunen4:05,2
267Ville Karjalainen4:07,82,6
369Petri Vesterinen4:08,53,3
465Arto Hartikainen4:14,59,3
566Jarmo Riihinen4:17,912,7
Tulos EK 2 jälkeen
SijNroNimiTulosEro
163Jani Tenhunen8:14,0
267Ville Karjalainen8:15,7 1,7
369Petri Vesterinen8:26,2 12,2
465Arto Hartikainen8:29,5 15,5
566Jarmo Riihinen8:39,9 25,9


Keskeyttäneet: 64, Antti Väätäinen, 2B, Perärikko  -   68, Jukka Leppänen, 2L, Moottori
 
Luokka 3 , Classic (Historic) alle 1300cc , Lähti:0
 
Luokka 4 , Classic (Historic) alle 1650 cc , Lähti:0
 
Luokka 5 , Classic (Historic) yli 1650 cc / 4wd , Lähti:2
EK2, 5.5km, nopein: 79.1km/h
SijNroNimiTulosEro
119Jyrki Tartia4:10,3
218Antti Laurila4:24,814,5
Tulos EK 2 jälkeen
SijNroNimiTulosEro
119Jyrki Tartia8:35,6*
218Antti Laurila8:57,0 21,4


*AT-pisteet: 19, Jyrki Tartia, 1L, Vilppilähtö, 10,0
 
Luokka 6 , V-1600 , Lähti:12
EK2, 5.5km, nopein: 80.4km/h
SijNroNimiTulosEro
11Tuukka Kauppinen4:06,3
26Petri Riihimäki4:18,712,4
32Eetu Tukiainen4:21,415,1
417Jukka Koskinen4:28,822,5
54Janne Karhunen4:29,623,3
65Juha Lindström4:33,126,8
711Markus Oksanen4:42,536,2
810Marko Oksanen4:42,636,3
97Joni Siltakoski4:45,439,1
103Jani Rinne4:50,944,6
Tulos EK 2 jälkeen
SijNroNimiTulosEro
11Tuukka Kauppinen8:13,0
26Petri Riihimäki8:41,3 28,3
32Eetu Tukiainen8:46,5 33,5
44Janne Karhunen9:01,2 48,2
55Juha Lindström9:07,1 54,1
67Joni Siltakoski9:10,7 57,7
717Jukka Koskinen9:12,4 59,4
83Jani Rinne9:30,1 1:17,1
910Marko Oksanen9:30,4 1:17,4
1011Markus Oksanen9:33,9 1:20,9


Keskeyttäneet: 8, Jari Hiltunen, 2L, Takaiskarit  -   9, Olli Niskanen, 2B, Ulosajo
 
Luokka 7 , V-1600 (nuoret 15–18) , Lähti:5
EK2, 5.5km, nopein: 77.5km/h
SijNroNimiTulosEro
116Ossi Kemmo4:15,5
215Kimi Rajala4:24,48,9
313juulia suvinen4:45,630,1
414Miska Mäkelä4:50,234,7
Tulos EK 2 jälkeen
SijNroNimiTulosEro
116Ossi Kemmo8:47,1
215Kimi Rajala8:50,5 3,4
313juulia suvinen9:31,3 44,2
414Miska Mäkelä9:33,4 46,3


Keskeyttäneet: 12, Oona Heimonen, 2B, Ulosajo
 
Luokka 8 , H2050/v2000 (kaikki ikäryhmät) , Lähti:0
 
Luokka 9 , HV1000 Autot (Ei alle 15v) , Lähti:0
 
Luokka 10 , Naiset 2WD , Lähti:0
 
Luokka 11 , Seniorit 2WD , Lähti:12
EK2, 5.5km, nopein: 83.7km/h
SijNroNimiTulosEro
199Jukka Lifander3:56,5
241Pekka Moilanen3:59,83,3
336Pentti Porko4:02,05,5
439Mika Ihalainen4:04,88,3
542Sami Juusonen4:06,910,4
640pasi niini4:07,711,2
738Kimmo Immonen4:11,114,6
833Hannu Yli-Kärkelä4:22,025,5
937Juha Kaipainen4:23,527,0
10100Kimmo Herronen4:25,228,7
Tulos EK 2 jälkeen
SijNroNimiTulosEro
199Jukka Lifander7:56,7
241Pekka Moilanen8:07,5 10,8
339Mika Ihalainen8:10,4 13,7
436Pentti Porko8:12,4 15,7
542Sami Juusonen8:17,0 20,3
640pasi niini8:21,3 24,6
738Kimmo Immonen8:33,7 37,0
833Hannu Yli-Kärkelä8:38,3 41,6
937Juha Kaipainen8:50,8 54,1
10100Kimmo Herronen8:57,4 1:00,7


Keskeyttäneet: 32, Erik Parkkonen, 2B, Syy?  -   34, Matti Kakriainen, 2L, Syy?
 
Luokka 12 , 2wd HR/ralliautot alle 1400/Trophy 1400 , Lähti:3
EK2, 5.5km, nopein: 76.6km/h
SijNroNimiTulosEro
121Pekka Manninen4:18,4
220Petri Hokkanen4:24,25,8
343Ismo lepistö4:43,625,2
Tulos EK 2 jälkeen
SijNroNimiTulosEro
121Pekka Manninen8:37,9
220Petri Hokkanen9:09,6 31,7
343Ismo lepistö9:23,8 45,9

 
Luokka 13 , 2wd HR/Ralliautot alle 2050cc , Lähti:13
EK2, 5.5km, nopein: 81.2km/h
SijNroNimiTulosEro
145Marko Vartiainen4:03,7
270Jarno Pentinpuro4:07,03,3
344Kyösti Kotamäki4:08,85,1
448Elmeri Mäki-Kulmala4:11,78,0
547Jan Talso4:12,79,0
651Tuomo Tuukkanen4:14,310,6
746Kalle Marttila4:15,611,9
852Henri Berg4:17,213,5
Tulos EK 2 jälkeen
SijNroNimiTulosEro
145Marko Vartiainen8:09,2
270Jarno Pentinpuro8:18,5 9,3
344Kyösti Kotamäki8:24,5 15,3
447Jan Talso8:27,4 18,2
551Tuomo Tuukkanen8:30,3 21,1
648Elmeri Mäki-Kulmala8:31,8 22,6
746Kalle Marttila8:35,8 26,6
852Henri Berg8:41,3 32,1


Keskeyttäneet: 49, Jukka Kokkonen, 2B, Syy?  -   53, Tomi Kankaanpää, 1B, Virranjakajan pyöriä  -   54, Oskari Jauhiainen, 2B, Syy?  -   55, Timi Niini, 2L, Syy?  -   56, Nico Valkonen, 2B, Syy?
 
Luokka 14 , 2wd HR/Ralliautot yli 2050cc , Lähti:6
EK2, 5.5km, nopein: 82km/h
SijNroNimiTulosEro
158Petri Katainen4:01,4
260Tuomo Palola4:02,41,0
359Ari Gylden4:10,49,0
461Marko Muhonen4:14,212,8
5101Arto Koikkalainen4:15,614,2
662Pekka Pölönen4:23,221,8
Tulos EK 2 jälkeen
SijNroNimiTulosEro
158Petri Katainen8:09,4
260Tuomo Palola8:10,1 0,7
359Ari Gylden8:20,5 11,1
461Marko Muhonen8:31,1 21,7
5101Arto Koikkalainen8:38,2 28,8
662Pekka Pölönen8:51,5 42,1

 
Luokka 15 , BMW ORIGINAL , Lähti:9
EK2, 5.5km, nopein: 80.1km/h
SijNroNimiTulosEro
189Pasi Kämäräinen4:07,2
288Eemeli Pohjonen4:09,22,0
390Jukka Alalantela4:10,02,8
486Ari Matilainen4:22,014,8
591Sami Koskinen4:25,418,2
694Kristian Pannula4:29,522,3
792Jussi Teppola4:43,736,5
893Ossi Pohjanharju6:05,41:58,2
Tulos EK 2 jälkeen
SijNroNimiTulosEro
189Pasi Kämäräinen8:14,6
290Jukka Alalantela8:17,8 3,2
388Eemeli Pohjonen8:19,6 5,0
486Ari Matilainen8:35,0 20,4
594Kristian Pannula8:56,8 42,2
691Sami Koskinen9:09,6 55,0
792Jussi Teppola9:29,3 1:14,7
893Ossi Pohjanharju10:20,6 2:06,0


Keskeyttäneet: 87, Pasi Järveläinen, 1B, syy?
 
Luokka 16 , 2wd Proto/sprintti alle 1650cc , Lähti:1

Keskeyttäneet: 96, Juha-Pekka Vuokio, 2B, Syy?
 
Luokka 17 , 2wd Proto/sprintti yli 1650cc , Lähti:0
 
Luokka 18 , 2wd Proto/sprintti yli 2250cc , Lähti:6
EK2, 5.5km, nopein: 80.9km/h
SijNroNimiTulosEro
171Harri Mielityinen4:04,6
275Jarno Puupponen4:05,40,8
374Tommi Rimpeläinen4:06,01,4
498Juha Pentti4:13,08,4
572Sami Koivusalo4:15,210,6
673Mikko Valldén4:33,929,3
Tulos EK 2 jälkeen
SijNroNimiTulosEro
171Harri Mielityinen8:10,7
275Jarno Puupponen8:13,3 2,6
374Tommi Rimpeläinen8:15,5 4,8
498Juha Pentti8:26,2 15,5
572Sami Koivusalo8:29,8 19,1
673Mikko Valldén9:11,6 1:00,9

 
Luokka 21 , Alle 5 kilpailua ajaneet , Lähti:10
EK2, 5.5km, nopein: 80.7km/h
SijNroNimiTulosEro
128Tomi Kaukonen4:05,5
223Aapo Tolmunen4:06,81,3
322Kalle Matilainen4:17,512,0
427Tero Heikkinen4:21,315,8
531Jesse Matilainen4:21,616,1
626Jami Rintatalo4:23,818,3
729Aki Sutinen4:43,538,0
830antti kuparinen5:13,11:07,6
Tulos EK 2 jälkeen
SijNroNimiTulosEro
123Aapo Tolmunen8:18,1
228Tomi Kaukonen8:21,7 3,6
322Kalle Matilainen8:39,4 21,3
431Jesse Matilainen8:45,7 27,6
527Tero Heikkinen8:53,0 34,9
626Jami Rintatalo8:57,4 39,3
729Aki Sutinen9:30,0 1:11,9
830antti kuparinen10:25,6 2:07,5


Keskeyttäneet: 24, Tuomo Lunkka, 1B, vaihdelaatikko  -   25, niko setälä, 2L, Moottori